Startpagina
METAR-TAF:

METAR-TAF

Vliegvelden :

Vlieland Heliport

Vlieland, Nederland

breedte: 53-15N, lengte: 004-55E, hoogte: 11 m

Actueel weer

Dit bericht is 10 minuten geleden gemaakt, om 23:55 UTC
Wind 9 kt uit het noordwesten
Temperatuur 13°C
Vochtigheid 77%
Druk 1026 hPa
Zicht 10 km of meer

METAR: EHVL 122355Z AUTO 31009KT 9999 NCD 13/09 Q1026 BLU

Tijdstip: 02:05 (00:05 UTC)


TAF: ontbreekt

Waarnemingen en weersverwachtingen van meer dan 4000 vliegvelden (METAR en TAF).

De beschikbare stations zijn de gele en rode punten op de kaart.

Ga met uw muis naar het station om de naam te zien.

Klik dan om waarnemingen en weersverwachtingen te zien.

kaart wijzigen: klik op de groene knoppen met een zwart kruis om in te zoomen, op de groene knop met een streepje om uit te zoomen of op de groene pijlen voor aangrenzende kaarten.


METAR-TAF: